Location: Ermatingen
(47.6706°N, 9.0857°E)
Time: 03:13:58
(UTC+00:00)

Cosmos 1536 Rocket - Pass Details

Date: 18 September 2020
Orbit: 606 x 632 km, 82.5° (Epoch: 24 October)

Event Time Altitude Azimuth Distance (km) Brightness Sun altitude
Rises 18:31:43 0° 357° (N) 2,914 7.3 -11.3°
Reaches altitude 10° 18:34:07 10° 7° (N) 2,007 6.3 -11.6°
Maximum altitude 18:38:12 35° 74° (ENE) 1,014 4.2 -12.3°
Enters shadow 18:41:15 16° 133° (SE) 1,639 5.2 -12.8°
